IBEX

Last updated on Thu Jun 13 2024 00:03:21 GMT+0000 (Coordinated Universal Time)

1 33401U 08051A 24164.27430556 -.00003805 00000+0 00000+0 0 9999 2 33401 50.1566 25.5374 6611084 41.6955 57.3231 0.11224328 697
UTC large
Height (km)
Speed (km/s)
/
Latitude / Longitude
Inclination (degrees)
Orbital Period (minutes)
Azimuth
Elevation
Range (km)
Doppler Factor

Next 0 passes for location: London (51.5072 / 0.1276)

Sorry there are no passes over London.